Back to catalog

METEOR 2-17 DEB

AlivePO
NORAD 35364·DEBRIS·🇷🇺 Russia

Launched Jan 30, 1988 from Plesetsk Cosmodrome

Loading…

Next Passes (next 24 hours)

TLE

FreshSource: Space-Track

Epoch: Sep 14, 2026, 03:49 UTC

1 35364U 88005Y   26257.15906432  .00000846  00000-0  53290-3 0  9994
2 35364  82.5502 189.7455 0022109 235.7155 189.7259 14.03126878563247

Track METEOR 2-17 DEB in real time with AllMySat

Download on the App Store